Location: Newark
(25.6108°S, 54.5803°W)
Time: 23:49:25
(UTC+00:00)

A-11 Canister half - Visible Passes

Search period start: 26 October 2020 00:00
Search period end: 05 November 2020 00:00
Orbit: 1515 x 1685 km, 47.2° (Epoch: 26 October)

Date Brightness Start Highest point End Pass type
(mag) Time Alt. Az. Time Alt. Az. Time Alt. Az.
31 Oct 10.1 08:26:51 10° NNW 08:35:14 39° NE 08:43:37 10° ESE visible
01 Nov 10.2 08:04:10 10° N 08:12:23 36° NE 08:20:34 10° ESE visible
02 Nov 10.2 07:41:32 10° N 07:49:32 33° NE 07:57:30 10° ESE visible
03 Nov 10.3 07:18:54 10° N 07:26:41 30° NE 07:34:24 10° ESE visible
04 Nov 10.3 06:56:19 10° N 07:03:49 28° NE 07:11:16 10° ESE visible
